Wind_Speed
1 2 2 2 1 1 2 3 3 2 2 2 2 2 2 2 1 1 2 3 3 5 5 6 7 7 6 6 6 6 7 6 5 5 4 4 4 4 5 5 5 5 5 4 4 4 4 3 2 1 2 1 1 4 7 8 9 9 9 10 10 10 9 8 7 7 7 8 9 9 7 4 3 3 5 6 6 4 2 4 6 3 4 6 6
4 4 4 3 3 3 2 3 3 2 2 1 1 1 1 1 1 2 3 4 5 6 6 6 6 7 6 6 6 6 5 5 4 4 3 3 3 3 4 5 4 4 5 5 5 4 4 3 2 1 1 2 4 7 10 10 10 10 10 10 9 9 8 8 8 8 8 9 10 13 13 11 8 6 6 6 5 2 3 5 6 3 6 6 5
5 5 5 4 3 3 3 2 3 1 1 1 1 1 1 1 3 4 4 5 6 7 6 7 7 6 6 6 6 6 5 4 4 3 3 3 3 3 3 4 4 5 6 6 5 5 5 4 4 4 5 6 8 9 11 11 11 11 10 10 9 8 8 8 8 7 8 9 10 13 15 15 14 9 5 4 3 2 4 6 5 3 7 7 5
4 5 5 5 4 3 3 2 2 2 2 2 2 2 2 3 4 5 6 6 6 7 7 8 8 7 7 7 7 7 6 5 4 3 3 3 4 5 6 7 7 6 7 7 7 7 7 7 7 7 8 9 11 12 13 11 11 11 10 10 9 9 8 8 7 7 8 8 9 11 14 15 15 13 7 3 3 2 4 4 3 6 7 7 5
3 4 5 4 4 3 3 2 3 3 3 3 4 4 4 5 6 6 7 6 6 7 9 10 9 8 7 7 7 7 7 6 4 3 3 4 5 8 9 10 9 9 9 10 10 11 11 10 10 9 9 9 11 12 12 11 10 10 9 9 9 9 8 6 6 7 7 7 8 10 13 14 14 13 10 6 4 3 3 2 5 7 7 6 6
4 4 4 4 3 2 3 3 4 4 4 4 5 5 5 5 6 7 7 6 6 7 8 9 8 8 7 8 8 9 8 6 5 4 4 5 9 11 11 11 10 10 11 12 12 12 12 11 10 10 9 9 9 10 10 10 10 10 10 10 10 9 8 5 3 6 6 5 6 10 12 13 14 14 12 8 4 3 1 3 5 6 6 6 5
5 5 4 4 3 3 4 4 5 5 5 5 6 6 6 6 6 6 6 5 5 5 6 7 7 7 8 8 9 8 8 7 6 6 6 9 12 12 11 10 10 10 10 11 12 12 11 10 10 10 9 8 7 8 9 10 10 11 12 12 10 9 8 6 2 4 6 5 5 9 11 12 13 14 14 9 5 3 2 3 5 5 4 5 5
5 4 4 4 4 4 5 5 5 5 6 6 6 6 6 6 6 6 5 5 4 5 6 6 7 7 9 9 8 8 7 7 6 7 10 13 12 11 10 10 10 10 11 12 11 11 10 10 9 8 8 8 8 9 10 10 11 13 14 12 10 9 8 6 4 1 3 4 5 9 10 11 12 13 15 10 5 3 3 4 5 4 4 5 5
4 4 4 4 4 5 4 5 5 6 7 7 6 6 6 7 7 7 6 6 6 6 7 8 8 9 9 9 9 8 6 6 6 9 12 13 12 11 10 10 11 11 12 12 12 11 9 9 8 7 8 9 10 10 11 12 13 15 14 11 9 8 7 5 4 2 1 3 5 9 9 9 10 12 15 11 5 3 3 4 3 4 5 6 6
4 4 4 4 4 4 4 5 6 7 7 7 6 6 6 7 7 7 7 7 7 8 9 9 9 9 9 9 9 8 7 6 7 9 11 11 11 10 10 11 11 11 12 12 10 10 8 8 7 7 8 9 11 11 11 13 15 15 14 11 8 7 6 5 1 2 2 3 5 9 9 7 9 12 15 13 6 3 2 2 3 4 6 6 6
4 4 4 5 5 4 5 6 7 7 7 7 6 5 5 6 6 7 8 8 8 9 9 8 9 9 8 8 8 8 7 7 7 9 10 9 9 9 10 11 11 11 11 10 9 8 7 7 7 7 7 7 8 10 11 12 15 15 13 10 8 6 4 4 1 5 2 3 6 9 9 7 10 14 16 15 8 4 2 1 2 3 5 6 6
4 4 5 5 5 5 6 7 8 8 8 7 6 6 6 6 6 7 8 8 8 9 8 8 9 9 8 8 8 8 7 6 7 7 8 8 8 8 9 10 10 10 9 8 7 7 7 6 6 6 6 6 7 8 10 11 13 14 12 10 8 5 4 3 3 5 3 5 7 8 8 9 12 15 16 16 10 6 3 1 1 2 3 4 5
3 4 5 5 5 6 7 8 8 8 8 7 6 6 6 7 7 7 7 8 8 8 9 9 9 8 8 8 8 7 7 7 7 7 8 7 7 7 8 9 10 9 8 7 6 7 7 7 6 6 6 6 6 7 8 10 12 13 13 11 8 6 6 5 3 4 5 6 7 7 8 12 14 15 16 17 12 7 4 2 1 2 3 3 3
3 4 4 4 6 6 7 8 8 8 7 7 6 5 7 7 7 7 7 8 9 9 9 9 9 8 7 7 7 7 8 8 8 8 8 8 7 7 7 8 9 9 8 7 6 7 7 7 7 6 5 5 5 5 6 8 10 12 12 10 8 8 7 5 2 1 4 6 6 7 9 12 14 15 16 18 14 9 6 3 2 2 3 3 3
4 4 4 4 5 6 7 8 8 7 6 6 6 6 7 7 7 7 8 8 8 8 8 9 9 8 7 7 7 8 8 8 8 8 8 8 8 8 8 8 8 8 8 7 7 8 7 8 7 5 4 4 4 4 4 6 8 11 11 10 8 7 7 6 3 2 4 6 6 6 9 13 15 15 16 18 14 9 8 5 3 3 3 3 3
4 4 4 4 4 6 8 9 8 7 6 5 6 7 7 7 8 8 8 8 7 7 8 8 8 8 7 7 8 8 8 8 8 8 8 7 7 7 7 7 7 7 7 7 7 7 7 7 7 5 4 3 3 3 4 4 6 8 10 10 9 7 7 6 2 2 4 6 6 6 9 12 14 15 17 18 14 8 7 6 4 4 3 3 3
3 4 4 5 5 7 8 9 8 7 7 7 7 8 8 8 8 8 8 8 8 8 7 7 7 7 6 7 7 7 7 7 7 8 8 8 7 6 6 7 6 6 6 7 7 6 6 6 6 5 4 3 2 3 3 4 4 5 7 9 9 7 7 6 4 3 5 7 6 6 8 11 13 16 18 17 12 7 5 5 3 4 4 4 4
3 4 4 5 6 8 9 8 8 7 8 8 8 8 8 8 7 7 7 7 7 8 8 8 7 7 6 6 6 7 7 6 7 7 8 8 7 6 6 6 6 5 6 6 6 6 6 5 5 4 4 3 3 3 3 3 3 4 5 6 6 6 6 5 5 6 7 7 6 6 7 10 14 17 18 15 11 6 4 5 3 5 5 5 5
4 4 5 6 7 8 9 8 7 7 8 8 8 8 8 8 7 6 7 7 7 7 7 7 7 7 7 7 6 7 6 6 6 7 7 8 7 7 6 6 5 5 5 5 5 5 5 5 5 5 4 4 4 4 3 3 3 3 3 4 5 4 4 5 6 7 7 7 6 6 8 11 14 16 16 14 10 7 5 6 4 5 6 6 6
5 5 6 6 7 8 9 8 7 8 8 8 9 9 9 8 8 7 7 7 7 7 7 7 7 7 7 7 7 6 6 6 7 7 7 7 7 7 7 6 6 5 4 4 4 4 4 4 4 5 5 5 6 5 4 3 3 3 3 3 5 4 4 6 7 6 6 5 6 7 9 11 13 13 13 12 8 7 8 6 5 4 5 6 6
5 6 7 7 7 7 8 7 8 8 8 8 9 10 9 8 8 8 7 7 7 7 7 7 7 7 7 7 6 6 6 7 7 7 7 7 7 7 7 7 6 6 5 3 3 3 4 4 5 5 6 6 6 5 5 4 4 3 3 3 3 5 8 10 9 8 6 5 5 6 8 9 11 11 11 10 6 5 6 5 4 3 3 5 5
6 6 6 7 7 7 7 7 8 8 8 8 9 9 9 8 7 7 8 7 6 7 7 6 6 7 7 7 6 5 6 7 7 7 7 7 6 6 6 6 6 6 5 4 3 2 3 4 5 5 6 7 7 7 7 6 4 3 2 2 3 8 11 11 10 10 10 7 6 6 7 8 9 10 10 9 7 2 4 3 3 2 2 5 5
5 4 5 5 6 7 7 8 8 8 8 8 7 8 8 6 6 6 6 6 6 7 7 7 6 6 6 7 6 5 5 6 6 5 5 6 6 6 5 5 6 5 4 3 3 2 2 2 4 4 5 6 7 8 8 6 4 3 2 2 6 11 11 10 9 10 10 9 7 7 8 8 9 10 10 9 8 3 2 2 2 1 4 5 5
5 4 4 5 6 8 8 8 8 8 7 6 6 6 6 5 4 4 3 5 6 7 7 7 7 6 7 7 6 5 5 5 5 5 5 6 6 6 5 4 4 3 3 3 3 3 3 3 3 2 3 3 5 7 7 6 4 3 3 5 9 9 8 8 8 9 9 9 9 8 8 7 8 9 8 7 5 2 1 1 1 2 5 5 5
6 5 5 5 7 8 8 8 8 7 6 5 5 5 6 5 4 3 3 5 6 7 6 6 7 7 7 6 5 5 5 4 5 5 6 7 6 6 6 5 4 2 1 2 3 4 4 4 4 3 3 3 4 6 6 6 6 6 6 8 10 7 6 6 6 8 9 9 9 9 7 6 7 7 5 4 3 2 1 1 2 3 4 5 5
6 5 5 6 7 8 8 8 7 6 6 5 5 5 5 5 5 4 5 6 6 6 6 6 5 5 4 3 3 4 5 5 5 5 5 5 6 6 6 7 6 4 2 2 3 3 4 4 4 4 4 4 5 6 6 7 7 7 8 10 9 8 7 6 6 8 9 8 8 8 8 7 6 4 2 2 2 2 1 2 5 4 4 5 5
5 5 5 5 6 8 8 8 7 6 6 6 6 5 5 7 7 7 8 7 6 5 5 5 4 2 1 1 1 2 3 3 3 3 3 3 4 4 5 7 7 6 4 2 2 3 4 3 3 3 3 3 5 5 5 5 7 8 8 8 8 8 7 6 6 8 9 9 9 9 9 6 4 3 2 2 1 3 0 3 5 5 5 6 7
4 5 5 5 6 7 7 8 7 7 7 7 7 6 7 9 9 8 7 6 5 5 4 4 2 1 2 3 3 2 1 1 1 1 1 2 3 3 3 5 6 7 6 3 3 5 4 3 3 3 3 3 3 4 4 4 7 7 7 8 9 8 8 7 7 7 7 8 9 9 9 6 3 3 3 2 2 2 2 3 4 5 6 7 7
3 4 5 5 6 7 7 8 8 8 8 8 8 8 10 9 8 7 6 5 4 3 3 3 3 4 5 6 6 5 3 2 2 2 3 3 3 3 4 4 4 6 6 4 3 4 4 3 3 2 2 3 3 3 3 4 6 7 7 8 8 8 8 7 7 8 7 8 8 8 9 6 2 4 3 2 3 3 3 4 4 5 7 8 9
3 4 5 6 6 7 7 8 8 8 9 8 8 9 9 8 7 6 4 3 1 1 3 4 4 6 6 6 7 8 7 4 3 3 4 5 4 5 6 6 5 4 5 5 4 4 3 3 2 2 2 1 2 2 3 4 6 7 7 6 6 7 6 6 7 8 8 8 7 7 8 5 2 3 2 2 4 3 3 4 5 6 8 10 10
4 5 6 6 7 8 8 9 9 10 11 9 8 8 7 6 5 3 1 2 4 4 1 1 2 3 4 4 6 7 7 5 2 2 4 5 6 6 7 7 6 5 5 4 3 4 3 2 2 2 2 2 2 4 4 4 6 7 6 5 4 4 4 5 6 7 8 7 6 6 6 5 4 3 2 2 3 2 2 3 4 6 8 9 10
6 7 7 7 7 8 9 10 11 11 10 9 7 6 6 5 4 3 3 4 3 4 4 4 4 5 6 6 6 4 3 1 1 2 4 5 5 5 6 6 7 8 7 6 3 3 3 2 1 2 3 2 4 7 6 3 5 6 5 4 2 2 2 3 4 6 7 7 7 6 6 5 4 2 2 2 2 1 1 2 3 5 6 7 9
8 9 8 9 9 10 11 12 12 10 8 6 5 5 5 5 6 7 5 4 4 5 5 4 5 6 7 8 7 4 2 2 1 3 4 6 6 5 6 7 8 9 8 8 6 4 4 4 2 2 3 3 3 8 7 2 2 3 5 5 3 1 0 2 4 5 5 4 4 5 5 5 3 2 1 1 1 2 1 1 1 2 3 5 6
9 10 10 10 10 11 11 11 10 8 6 4 3 3 3 6 9 10 9 7 6 5 4 5 7 9 9 7 6 4 2 2 1 2 4 6 7 8 8 7 8 8 7 8 6 4 5 6 6 5 5 5 5 7 7 2 2 1 3 4 3 2 2 3 4 4 3 2 2 4 4 3 2 1 1 2 2 2 1 1 1 1 2 3 2
11 11 10 10 10 9 9 8 7 5 4 3 2 3 5 8 9 8 8 7 6 4 4 6 10 12 12 8 5 3 1 1 1 2 4 6 8 9 9 7 6 6 7 6 5 5 5 7 8 7 7 7 6 6 7 3 2 1 1 3 4 3 1 3 3 2 3 4 3 3 2 2 1 0 0 1 2 3 3 2 3 2 1 1 2
12 11 11 10 9 8 8 7 5 3 2 2 2 3 4 6 6 6 6 6 5 3 5 7 10 13 12 7 6 4 1 1 2 3 5 7 8 8 8 7 5 4 6 6 6 6 6 7 8 6 4 5 6 6 7 3 3 2 1 4 5 4 3 1 2 3 4 4 3 1 2 1 0 1 0 2 3 4 4 3 3 3 2 2 1
12 12 11 11 10 9 7 6 5 3 3 2 2 3 3 4 5 6 7 6 4 4 7 9 11 14 11 6 6 6 4 2 4 6 8 9 9 7 8 8 5 4 6 7 8 7 7 8 7 5 3 3 3 5 6 4 4 5 5 5 4 4 4 2 2 3 3 2 1 2 1 1 1 1 1 2 3 3 2 2 2 2 2 1 1
11 12 11 11 10 9 7 6 5 4 4 3 3 4 4 5 6 8 8 7 7 7 9 10 11 13 10 7 7 7 7 5 4 6 9 11 10 7 8 9 7 4 5 7 7 6 6 6 5 4 3 3 5 5 5 3 4 6 6 4 2 3 3 1 3 2 2 2 2 2 2 2 2 2 1 2 2 1 1 2 1 1 0 0 0
10 10 10 10 9 8 7 5 4 4 4 4 5 6 7 8 8 8 9 9 10 10 10 11 12 13 11 8 7 7 7 7 7 8 10 11 10 8 7 9 8 6 6 6 6 6 4 4 3 2 1 2 6 7 4 1 2 3 2 2 2 2 2 1 3 2 2 3 3 3 3 3 2 1 1 2 2 2 1 2 2 2 1 1 1
10 10 9 8 7 7 6 4 2 3 5 5 6 8 9 10 10 10 9 8 9 10 10 12 13 12 11 9 7 5 6 6 8 10 12 12 10 8 8 8 9 8 8 8 7 6 5 3 1 1 1 1 5 7 5 1 2 1 1 2 2 1 1 2 2 2 3 5 5 4 4 3 2 1 1 3 3 3 2 3 3 2 1 1 2
9 9 9 8 7 6 5 3 2 4 5 6 7 8 8 8 9 9 9 8 9 10 11 12 11 10 10 11 8 6 7 7 8 10 11 13 11 8 7 8 10 10 10 10 9 8 6 4 2 1 2 1 3 7 4 2 2 2 2 1 1 1 2 3 2 2 3 5 6 4 3 3 2 2 3 4 5 5 4 3 3 2 1 2 3
8 8 8 8 7 6 4 2 3 4 5 5 6 7 8 8 8 8 8 9 10 10 12 12 10 11 12 13 11 9 8 7 8 9 11 14 11 8 8 8 10 11 11 10 10 11 8 4 3 1 3 4 2 4 2 1 2 2 3 3 2 2 2 2 2 2 2 3 3 2 1 1 3 4 5 6 6 5 4 3 2 2 2 3 5
7 7 7 7 7 5 3 2 2 3 4 3 4 5 6 8 10 10 9 9 11 11 12 12 11 12 13 13 13 12 11 7 7 8 11 14 10 6 8 8 9 11 11 9 10 12 11 7 4 0 3 4 4 3 1 2 3 3 4 4 4 4 2 2 2 1 1 1 1 2 2 3 4 5 5 5 4 4 3 1 3 5 5 7 8
7 6 6 6 5 4 2 1 2 2 2 1 3 4 6 8 11 11 10 10 12 13 12 11 12 14 14 14 13 13 13 10 9 9 9 11 9 4 5 8 8 9 10 9 10 12 12 10 7 3 3 5 5 4 3 3 4 5 6 6 6 5 3 3 4 4 4 2 3 3 3 4 4 3 3 2 2 4 3 2 4 6 7 8 8
7 6 5 5 4 3 2 1 2 1 3 4 5 6 7 9 11 12 12 12 12 11 10 10 12 14 14 13 12 12 13 12 13 12 9 9 8 3 3 6 7 9 9 9 11 12 12 11 10 7 3 5 5 5 5 3 3 4 5 6 6 6 6 8 7 6 6 4 4 3 3 3 2 2 1 1 2 5 4 3 4 5 6 8 9
7 6 6 6 5 4 3 4 4 5 6 6 8 10 11 11 12 12 11 11 10 9 9 9 11 13 13 12 12 12 12 12 13 13 10 9 8 4 3 4 6 8 7 6 9 10 11 10 9 8 4 4 3 5 7 5 4 3 5 7 7 7 8 10 9 7 7 6 4 4 3 3 3 2 1 2 4 6 6 6 6 6 7 8 9
7 6 6 6 5 5 4 5 7 8 8 9 10 12 13 11 9 7 7 8 8 8 9 10 11 13 13 11 12 12 12 12 12 12 11 10 8 5 3 3 5 7 6 4 7 8 9 10 8 7 5 3 3 3 5 5 4 3 4 5 6 6 6 9 9 8 9 7 5 4 3 3 3 2 2 5 7 5 5 7 9 9 10 9 7
6 6 5 6 5 5 5 7 9 9 9 10 11 11 11 10 7 6 7 7 8 9 9 10 12 14 13 11 12 12 12 13 13 12 12 11 10 7 5 4 4 6 7 5 5 6 7 8 8 8 7 5 3 2 3 4 3 2 2 2 3 3 5 8 8 7 8 10 9 6 4 4 2 2 0 4 6 4 5 7 10 11 11 9 8
5 5 5 7 7 7 6 7 8 9 9 10 10 10 10 11 10 9 9 9 9 10 10 11 13 14 13 11 12 13 13 14 15 15 13 11 11 9 7 7 6 6 7 6 5 4 7 8 8 9 9 6 3 2 1 3 3 2 2 1 2 3 5 7 8 9 9 9 12 10 9 7 6 6 2 3 4 4 5 8 10 11 10 9 8
6 5 6 7 8 9 9 8 9 9 10 11 11 11 11 13 14 13 12 10 10 11 11 11 13 14 14 12 13 15 16 16 16 17 16 14 14 12 9 9 9 8 8 8 8 8 8 8 8 11 9 4 3 2 0 2 4 4 2 1 2 3 5 7 9 12 11 9 10 11 11 10 9 8 4 3 3 3 5 8 9 9 10 10 9
7 7 7 8 8 9 11 11 11 11 13 14 14 13 12 13 14 14 14 13 11 11 12 12 13 14 15 15 15 16 17 17 17 18 19 17 16 15 12 10 9 9 10 10 10 10 9 6 7 10 7 3 3 2 1 2 3 4 4 3 3 4 5 5 7 11 13 12 11 13 15 12 9 9 7 3 1 2 4 7 7 8 11 11 9
Wind_Direction
168 167 176 138 166 152 144 140 132 148 167 209 215 232 226 229 243 176 138 126 132 130 127 126 126 123 123 118 113 111 111 111 111 108 101 103 113 131 136 140 143 136 138 144 143 138 141 136 138 86 19 306 34 104 129 126 115 108 106 107 107 103 99 101 105 101 88 78 66 58 48 33 24 63 92 97 108 108 38 29 16 30 109 112 118
169 169 167 156 172 150 151 140 137 157 156 237 274 290 289 257 163 159 145 129 132 131 132 130 122 120 122 117 115 113 112 112 115 117 114 116 124 133 138 152 155 150 151 148 147 148 155 140 122 81 73 67 71 118 128 119 115 112 110 109 107 105 111 122 125 111 89 79 70 59 52 46 43 64 101 105 114 94 2 5 4 59 109 103 107
166 161 161 149 157 147 146 148 155 154 85 356 2 348 353 126 137 143 139 131 135 133 133 127 118 117 118 115 112 107 106 107 111 117 121 126 134 133 132 143 145 153 150 137 145 158 164 138 117 115 105 77 79 121 129 120 118 116 115 116 118 118 121 122 118 105 88 81 71 59 50 43 38 44 84 101 103 75 16 355 360 96 119 113 111
160 147 152 145 150 147 144 152 135 83 57 51 60 63 75 108 123 129 130 132 132 128 125 117 113 113 112 111 109 104 100 101 103 102 115 137 138 124 118 116 118 133 136 130 135 145 144 128 120 113 102 88 89 111 121 120 116 114 121 128 128 120 114 102 85 83 83 82 75 61 49 39 32 26 22 25 38 28 357 354 54 105 110 112 110
162 141 145 145 146 135 136 139 104 80 70 70 74 81 87 103 112 114 117 125 126 119 115 114 115 114 113 116 115 111 108 106 107 112 130 144 127 115 114 111 107 109 115 121 124 125 125 121 117 107 98 96 99 108 115 116 112 114 125 133 126 112 107 95 61 56 63 80 82 57 41 32 25 18 8 355 360 352 348 52 106 107 96 99 98
161 150 149 141 135 120 123 122 104 92 83 80 77 83 93 101 106 103 102 108 115 115 114 117 119 116 115 119 118 114 109 103 104 108 118 116 112 117 116 111 109 106 108 116 120 120 121 118 112 103 99 100 105 109 112 113 112 119 129 131 118 107 106 103 48 27 33 62 76 41 29 23 17 13 6 351 342 352 52 106 111 104 90 83 80
160 156 146 132 128 122 120 114 102 98 95 88 84 85 93 100 106 104 103 105 107 112 113 115 116 116 117 117 114 108 102 96 93 96 108 113 116 121 119 116 116 116 117 118 119 119 117 114 106 101 103 109 117 117 115 115 120 128 134 133 121 109 104 109 85 12 8 21 31 19 18 14 10 5 360 350 335 354 72 113 112 102 78 56 45
160 152 136 130 130 124 122 115 106 108 103 95 90 90 98 104 109 111 111 110 109 112 112 117 119 120 118 114 108 101 96 94 88 95 114 122 125 125 121 121 121 122 122 121 121 118 114 110 105 104 107 112 123 128 129 130 135 140 140 139 131 116 104 107 105 69 355 3 358 4 11 4 360 354 352 349 339 354 69 100 108 94 62 45 40
155 147 134 130 128 123 126 123 118 118 111 104 97 94 108 116 115 115 109 106 110 113 115 120 121 119 113 108 103 97 93 91 93 106 117 123 125 122 116 116 118 122 121 122 123 118 116 115 113 115 112 108 114 122 131 140 147 148 147 141 132 115 97 90 92 145 236 1 4 6 5 356 353 349 347 346 343 348 44 80 86 64 51 38 39
149 145 133 125 123 122 130 124 118 121 119 114 106 100 114 123 116 109 106 108 111 110 110 111 112 112 107 105 101 98 94 88 99 115 121 122 123 117 111 112 116 120 120 122 120 116 119 119 122 124 120 110 103 106 120 139 151 152 148 142 129 110 89 75 79 230 255 360 8 13 9 358 352 349 348 346 340 335 360 47 35 38 34 27 42
145 141 126 124 125 121 127 120 116 117 117 116 112 109 109 115 113 109 112 116 115 110 107 108 109 110 110 109 106 104 99 91 101 119 125 125 123 117 112 112 115 119 118 119 118 118 120 118 123 126 127 120 106 103 113 133 150 153 149 147 134 113 86 77 236 256 280 1 6 15 15 3 352 347 348 347 335 319 317 3 24 38 34 33 46
136 139 130 133 132 123 120 116 116 114 115 113 112 116 113 115 118 119 121 122 120 115 111 112 113 117 121 118 112 107 103 97 104 120 129 129 123 120 118 116 118 121 120 121 122 122 121 117 121 120 120 123 116 113 118 130 147 156 158 156 140 120 100 105 224 274 322 360 5 9 7 356 349 345 345 345 334 309 299 275 66 67 57 53 56
127 139 139 138 128 119 119 119 119 115 113 110 112 123 126 128 132 130 126 124 122 119 115 115 117 124 129 121 112 105 104 104 109 122 132 135 127 122 124 123 122 122 123 123 124 125 123 119 113 106 101 104 107 114 126 134 145 157 161 158 147 135 128 134 207 283 322 342 355 355 352 345 341 339 338 341 334 308 290 266 152 104 94 80 77
131 143 144 136 124 119 122 123 119 116 115 112 120 129 130 135 136 133 128 125 126 124 117 116 118 122 126 118 109 104 104 105 109 122 133 140 137 133 130 128 125 124 126 124 128 131 127 119 110 104 96 94 98 110 128 139 150 160 164 161 153 144 141 138 140 317 311 316 331 336 338 334 332 332 332 335 333 314 289 255 180 143 117 102 99
132 141 141 136 132 130 127 123 119 120 124 123 128 131 134 138 135 131 128 129 130 126 121 119 119 121 124 115 107 104 102 102 105 113 124 136 143 146 142 136 131 132 133 132 137 137 132 122 117 117 112 105 109 123 134 140 150 162 172 172 165 153 150 149 108 27 328 312 311 312 320 325 324 324 328 331 330 317 291 258 190 169 139 124 118
138 140 142 144 144 140 133 126 125 132 137 132 131 130 132 135 135 131 124 123 120 119 123 123 121 121 123 114 108 105 102 101 98 99 105 118 133 145 150 146 140 140 141 141 143 141 138 129 128 132 127 124 126 135 140 140 142 157 171 175 177 175 164 163 164 337 316 311 309 300 307 316 317 319 326 328 326 314 286 259 199 166 152 148 138
146 138 140 149 148 141 139 132 131 139 138 128 128 126 127 132 134 130 122 119 115 117 120 119 119 117 114 108 105 102 99 96 92 90 89 96 109 128 146 151 149 151 148 146 147 146 143 137 136 140 140 145 150 152 145 143 141 150 165 176 190 196 183 178 201 262 282 290 300 304 305 312 318 322 326 328 322 309 276 252 202 168 173 177 171
140 127 130 146 146 142 143 134 132 140 136 129 131 130 129 131 131 128 123 120 115 116 119 119 120 117 113 107 103 100 96 95 93 91 88 85 89 101 122 139 149 155 151 148 154 156 152 149 146 149 158 168 184 185 171 155 144 146 166 182 194 193 194 209 233 261 277 282 302 312 309 315 322 326 328 328 317 302 255 233 202 179 193 200 194
128 126 129 143 146 145 144 138 138 139 137 136 133 128 125 123 121 122 122 122 118 119 124 126 126 123 118 111 109 108 105 104 99 94 91 87 84 88 97 114 134 144 146 147 159 167 167 166 165 172 179 185 198 203 200 177 152 154 170 187 191 192 217 252 270 279 280 285 309 320 313 317 322 326 332 329 313 300 267 235 221 206 203 207 210
129 134 131 136 144 146 146 147 150 140 138 138 127 121 121 122 122 124 126 125 122 123 126 123 120 116 113 110 110 110 110 106 97 91 91 90 89 91 93 101 116 127 138 150 167 182 189 191 192 197 199 201 204 208 208 190 174 166 164 189 191 210 247 258 270 279 279 286 306 314 314 315 320 326 335 332 308 287 278 245 226 234 220 217 219
142 136 123 129 140 147 149 149 152 146 143 137 127 120 119 122 125 125 122 119 119 123 127 126 122 116 111 105 105 106 103 100 96 96 95 94 93 94 97 97 100 104 116 138 167 188 201 209 214 214 213 214 211 212 216 204 190 175 160 172 190 225 234 234 243 251 251 262 284 298 303 307 317 327 336 336 314 263 256 246 234 250 252 239 237
151 140 132 138 142 152 152 146 153 152 147 141 131 121 119 122 125 127 121 123 129 130 131 131 130 123 108 102 113 120 108 104 101 98 91 87 86 89 94 96 96 96 101 112 131 165 191 206 214 218 218 218 215 212 215 211 198 188 177 173 214 229 229 230 238 244 247 251 250 265 284 294 309 323 335 343 340 282 219 257 267 246 295 284 266
155 152 155 152 147 156 156 147 153 153 148 144 132 122 126 126 124 131 131 136 132 122 116 112 123 128 114 109 118 124 113 107 102 92 82 78 76 77 83 91 98 104 114 124 133 151 179 202 211 214 216 215 214 212 212 211 198 191 186 201 224 230 239 250 256 253 256 265 261 257 267 283 308 320 331 346 354 353 203 264 292 299 326 312 291
144 145 148 153 154 159 159 152 151 151 149 141 126 125 135 135 138 149 157 151 125 108 105 112 129 138 131 120 112 113 113 107 100 88 77 74 69 65 65 70 83 99 118 147 165 178 193 212 227 221 223 219 219 218 213 206 207 225 230 231 230 235 257 268 270 264 263 265 265 266 262 277 308 317 329 349 7 12 212 249 302 343 344 344 348
128 136 135 144 156 162 163 158 156 151 142 131 121 131 144 145 158 171 154 139 118 107 111 124 136 136 135 131 123 120 117 108 98 86 75 69 63 59 52 44 39 39 75 202 204 206 212 222 237 253 272 268 251 238 226 220 235 255 253 245 244 254 272 275 274 266 265 263 261 271 268 279 307 314 332 11 47 48 58 326 319 341 356 4 4
121 134 137 139 148 159 166 165 164 156 140 131 129 145 154 143 146 147 134 126 114 116 124 132 129 120 124 123 119 109 99 99 92 82 78 71 63 57 46 34 29 16 336 264 249 240 242 246 247 260 276 270 261 255 248 243 248 260 261 259 261 265 265 266 274 266 262 264 266 274 274 279 300 298 306 43 98 126 86 338 325 338 345 342 334
122 129 136 140 142 151 164 169 167 163 151 148 156 162 148 132 134 131 129 123 117 129 140 141 126 91 76 13 25 72 80 95 101 92 83 67 50 45 40 31 29 20 7 331 303 302 283 280 274 277 296 276 260 264 267 260 260 266 267 272 277 274 270 266 266 258 249 251 259 268 270 266 274 271 294 341 183 178 232 318 317 334 329 318 318
126 128 131 137 144 146 155 162 163 160 153 160 170 158 131 126 129 127 128 128 127 139 143 149 166 241 283 299 305 303 52 64 85 81 48 23 16 5 15 22 24 21 17 11 332 322 311 315 313 300 312 313 295 281 284 288 282 280 279 282 282 280 282 273 252 243 244 249 255 262 265 260 262 285 307 319 235 219 308 300 298 313 307 301 303
122 126 119 114 138 154 157 158 158 154 153 164 161 144 130 123 123 128 134 135 136 153 167 181 217 251 273 289 297 292 297 350 5 14 353 342 357 343 340 350 2 19 22 20 348 320 307 311 325 312 297 311 322 303 304 320 305 296 296 289 283 284 285 268 241 236 248 253 253 260 267 268 271 288 298 280 257 272 291 285 281 282 285 286 284
119 126 116 107 127 148 155 154 153 151 151 153 141 134 130 117 119 133 139 133 93 263 210 211 225 240 252 267 283 288 291 311 348 360 345 332 334 332 330 325 329 2 16 22 18 350 322 301 317 342 303 280 303 306 322 343 329 316 315 300 289 294 279 245 239 249 255 251 249 266 282 292 292 282 289 255 257 271 278 283 280 273 276 277 277
121 123 121 121 127 135 143 147 147 145 141 137 132 128 117 103 105 109 52 345 346 348 349 331 302 277 275 283 286 285 291 300 323 337 334 327 330 333 328 323 325 333 339 357 21 18 1 325 301 315 304 291 328 336 327 338 338 332 333 320 313 324 285 241 250 256 252 252 259 276 286 294 291 285 292 264 264 286 290 286 283 276 273 272 273
123 122 126 133 133 133 142 144 144 142 138 136 132 112 89 77 66 49 2 351 14 31 27 20 21 2 347 332 314 309 317 305 223 306 316 321 335 336 316 315 321 323 323 324 341 5 357 345 313 294 301 314 2 354 333 323 332 337 355 359 9 3 309 236 249 248 247 254 262 271 275 281 284 285 301 290 293 15 311 270 273 270 270 272 271
123 123 129 136 135 133 137 140 141 142 140 136 119 88 67 69 71 68 59 61 82 67 34 18 26 19 2 343 331 348 30 128 170 308 315 321 334 333 310 303 307 311 315 314 317 324 316 309 298 300 317 322 347 342 329 311 296 326 10 29 55 27 263 219 266 266 255 254 255 262 271 281 280 271 320 81 75 63 49 280 285 290 284 276 274
128 126 130 135 135 132 132 133 133 135 134 129 120 87 71 87 88 79 72 72 74 63 35 9 11 12 3 346 338 358 41 149 187 317 326 330 336 335 328 316 308 308 313 314 314 316 311 302 299 306 314 309 318 334 333 313 206 247 21 43 76 106 207 245 288 297 275 257 263 268 270 281 281 277 79 96 85 72 60 56 72 25 309 298 312
133 128 129 130 131 131 130 132 131 129 122 118 143 115 94 102 102 91 82 76 67 56 25 5 3 359 354 342 342 8 70 173 227 315 321 327 333 336 340 344 334 323 314 312 312 315 316 311 312 310 297 289 289 319 344 345 177 191 12 54 89 111 163 241 274 303 289 282 292 281 254 254 266 315 19 86 77 84 88 85 86 88 92 50 36
136 131 131 129 128 131 131 140 144 144 128 111 127 121 111 116 114 97 82 78 71 41 1 2 353 346 346 336 338 357 22 214 262 297 309 322 336 337 343 355 355 334 317 311 309 301 297 300 308 307 290 286 271 283 338 15 153 165 72 79 84 88 79 89 243 265 275 284 293 259 233 240 170 272 273 101 94 94 96 93 82 78 99 114 82
141 136 138 138 137 138 139 149 153 153 150 136 135 140 142 122 99 78 65 58 51 15 358 357 340 334 341 339 340 354 6 344 286 303 318 332 345 341 344 357 356 330 317 317 322 315 303 296 296 307 332 357 308 285 333 26 129 126 109 104 83 68 54 43 246 248 248 261 243 185 192 154 154 206 185 102 95 97 93 80 77 92 101 120 126
149 144 147 148 145 145 148 155 158 158 152 139 125 121 111 80 62 56 49 35 17 1 353 346 333 336 350 356 353 359 7 9 345 332 334 339 345 340 343 357 357 342 323 319 332 339 326 309 299 308 332 9 354 327 338 20 112 125 118 106 74 40 9 291 212 210 206 204 198 172 150 159 187 190 114 57 47 64 39 14 345 231 194 184 219
158 155 156 155 154 155 158 164 165 153 134 118 92 74 63 47 37 33 29 19 5 352 344 340 337 344 353 359 356 358 6 13 15 5 354 347 346 345 347 357 356 348 338 324 331 347 344 324 297 301 348 20 359 350 347 359 133 131 98 69 81 54 360 229 183 177 195 179 165 162 161 187 213 154 44 349 349 360 340 310 288 280 280 196 218
165 167 166 161 167 169 167 173 161 120 102 88 62 49 44 34 26 25 18 8 356 347 351 350 345 348 353 358 354 352 4 13 15 9 1 354 350 352 1 10 4 353 347 339 337 347 354 348 309 181 99 54 24 16 8 317 216 201 343 26 55 65 156 198 182 209 205 163 152 155 166 193 207 111 19 351 351 346 302 236 236 257 248 226 256
170 171 174 174 181 181 175 168 119 100 85 69 53 40 31 19 16 16 2 350 342 343 355 357 357 9 18 20 15 3 1 7 12 6 359 357 353 354 11 24 16 2 352 346 340 339 348 5 349 255 223 233 56 44 22 321 242 197 173 170 324 303 231 229 233 242 205 163 162 164 163 169 133 80 22 351 331 318 292 236 220 234 247 286 295
170 169 176 185 191 193 194 171 117 93 72 58 47 30 7 352 352 350 337 331 333 338 347 351 3 25 30 28 27 21 5 355 4 4 355 356 356 355 4 21 19 5 351 338 333 329 334 2 2 252 216 227 148 86 55 292 255 215 211 226 222 213 221 224 233 241 199 165 167 154 135 95 72 49 5 343 324 307 284 241 247 275 298 311 307
173 176 182 191 198 208 219 177 116 66 52 39 14 359 339 332 335 337 327 322 330 336 339 344 2 18 23 20 20 24 21 359 347 351 348 352 360 5 360 8 13 6 355 333 325 328 329 345 3 182 203 228 209 159 140 222 238 228 226 233 214 193 151 136 161 132 96 36 48 63 36 26 40 28 2 346 330 312 287 292 315 304 306 314 312
182 184 190 203 215 230 254 195 145 52 25 335 313 317 315 316 319 323 320 317 325 329 332 345 1 8 11 8 4 13 21 14 354 344 344 352 360 7 1 2 358 357 359 345 334 335 333 334 341 333 216 221 234 239 232 220 230 222 216 216 206 199 172 162 165 132 109 83 72 65 47 40 42 34 7 341 341 341 325 318 325 320 320 326 326
194 197 210 225 231 241 306 305 214 284 318 301 302 304 306 307 303 302 304 308 315 321 329 348 1 359 359 358 353 359 8 11 3 348 342 360 7 353 335 353 350 341 348 349 343 341 338 332 331 332 270 219 226 247 255 240 218 220 227 221 210 206 198 195 187 146 133 136 118 96 77 69 74 87 49 359 3 2 2 351 328 322 320 324 327
205 214 230 235 234 241 292 307 283 299 314 310 302 294 290 294 295 293 291 298 307 319 329 342 351 347 345 345 342 349 354 357 1 350 340 355 7 354 311 327 341 334 333 342 342 339 343 340 332 333 314 251 240 250 259 255 233 234 250 243 236 238 220 203 191 158 146 151 143 126 106 96 101 115 73 20 3 6 26 31 11 348 331 324 323
213 224 240 239 235 243 278 295 287 288 292 295 293 286 284 286 290 289 287 296 307 318 324 329 336 333 329 328 328 336 340 341 349 348 341 344 347 339 309 303 316 320 317 317 326 331 340 345 343 341 336 307 287 262 257 264 264 265 268 253 242 251 236 213 204 181 165 164 163 156 139 116 98 80 16 4 358 13 37 23 8 358 349 345 340
218 227 237 235 229 236 268 287 282 277 280 289 291 287 282 275 271 272 279 293 301 306 311 317 324 321 315 317 323 328 329 329 332 333 338 345 341 325 302 295 294 293 293 293 309 322 327 333 341 345 350 342 311 275 266 284 285 269 275 264 235 224 208 219 235 229 198 176 168 173 178 163 150 185 326 359 346 355 21 5 355 354 355 358 358
238 243 248 240 231 233 255 279 280 275 280 288 287 283 274 264 262 265 270 280 285 290 297 306 312 309 304 310 322 325 322 322 324 324 333 345 343 332 305 296 297 285 279 280 289 301 309 315 320 327 341 352 326 280 278 302 298 283 282 261 230 200 189 215 233 232 222 191 174 178 183 178 169 175 189 342 329 334 360 356 351 354 2 5 1
265 273 272 259 248 246 253 266 270 262 269 279 277 273 269 265 268 269 270 273 271 274 281 291 300 300 300 304 313 317 316 319 322 323 329 335 339 339 323 305 302 294 283 276 274 281 297 307 309 313 323 346 329 290 98 319 299 296 295 251 226 212 204 217 219 217 222 215 197 187 184 186 177 173 201 300 314 342 359 354 354 3 10 7 2
278 280 280 279 277 272 269 272 275 266 265 273 278 279 273 269 272 273 274 273 266 262 265 275 286 292 296 299 304 308 309 313 317 320 324 328 332 335 330 319 309 299 288 276 271 273 282 289 298 305 306 321 327 305 17 345 293 285 282 259 236 229 230 237 233 225 221 221 208 178 173 184 184 183 196 210 284 343 356 356 358 6 6 5 6
Height
1542 1542 1543 1542 1543 1542 1542 1541 1541 1541 1541 1541 1541 1541 1541 1541 1541 1541 1541 1541 1541 1541 1540 1540 1539 1539 1540 1540 1540 1540 1540 1539 1539 1539 1538 1538 1538 1538 1538 1538 1538 1538 1538 1538 1538 1538 1538 1537 1537 1537 1538 1538 1537 1537 1538 1538 1537 1537 1538 1538 1539 1539 1539 1539 1539 1539 1538 1538 1538 1537 1536 1536 1535 1534 1533 1533 1532 1532 1531 1531 1530 1529 1528 1528 1528
1541 1541 1542 1542 1542 1542 1542 1541 1541 1541 1541 1541 1540 1541 1541 1541 1541 1541 1541 1542 1542 1541 1541 1540 1540 1540 1540 1540 1540 1540 1540 1540 1539 1539 1538 1538 1538 1538 1537 1537 1537 1538 1538 1538 1538 1538 1538 1537 1537 1538 1538 1538 1537 1537 1538 1538 1538 1538 1538 1538 1539 1539 1539 1539 1539 1539 1539 1538 1538 1537 1536 1536 1535 1534 1534 1533 1533 1532 1531 1531 1530 1529 1529 1529 1528
1541 1542 1542 1542 1542 1542 1542 1541 1541 1541 1541 1541 1540 1541 1540 1540 1540 1541 1541 1542 1542 1541 1541 1541 1541 1540 1540 1540 1540 1540 1540 1540 1539 1539 1539 1538 1537 1537 1537 1537 1537 1537 1537 1538 1538 1538 1538 1538 1538 1538 1538 1538 1538 1537 1538 1538 1538 1538 1538 1539 1539 1539 1539 1539 1539 1539 1539 1538 1538 1537 1536 1536 1535 1535 1534 1534 1533 1532 1531 1531 1530 1530 1529 1529 1528
1542 1542 1542 1542 1543 1542 1542 1542 1541 1541 1541 1541 1541 1541 1540 1541 1540 1541 1541 1542 1542 1542 1542 1541 1541 1541 1541 1540 1540 1540 1540 1540 1539 1539 1538 1538 1537 1537 1537 1537 1537 1537 1537 1538 1538 1538 1538 1538 1538 1539 1539 1539 1539 1538 1538 1539 1539 1539 1539 1539 1539 1539 1539 1539 1539 1539 1539 1538 1538 1537 1537 1536 1536 1536 1535 1534 1533 1532 1532 1531 1531 1530 1530 1529 1529
1542 1542 1543 1543 1543 1542 1542 1542 1542 1542 1542 1542 1541 1541 1541 1541 1541 1541 1542 1542 1542 1542 1542 1542 1542 1541 1541 1540 1540 1540 1540 1540 1539 1539 1538 1538 1538 1538 1538 1537 1537 1537 1537 1538 1538 1538 1538 1538 1539 1539 1540 1540 1540 1539 1539 1539 1540 1540 1540 1540 1539 1539 1539 1539 1539 1539 1539 1538 1538 1538 1537 1537 1537 1536 1536 1535 1534 1533 1532 1532 1531 1530 1530 1529 1529
1542 1542 1542 1543 1543 1543 1542 1542 1542 1542 1542 1542 1542 1542 1542 1542 1542 1542 1542 1543 1542 1542 1542 1542 1542 1541 1541 1541 1541 1540 1540 1540 1539 1539 1538 1538 1538 1538 1538 1538 1538 1538 1538 1538 1538 1539 1539 1539 1540 1540 1540 1541 1541 1540 1540 1540 1540 1540 1541 1541 1540 1540 1540 1540 1540 1539 1539 1538 1538 1538 1538 1538 1537 1537 1537 1536 1535 1534 1533 1532 1531 1531 1530 1529 1529
1542 1542 1543 1542 1543 1543 1542 1542 1542 1543 1543 1543 1543 1543 1543 1542 1542 1542 1543 1543 1543 1543 1542 1542 1542 1542 1541 1541 1541 1541 1540 1540 1539 1539 1538 1538 1538 1538 1538 1538 1538 1538 1539 1539 1539 1539 1539 1540 1540 1541 1541 1541 1541 1541 1541 1541 1541 1541 1541 1541 1541 1540 1540 1540 1540 1539 1539 1539 1539 1538 1538 1538 1538 1537 1537 1537 1536 1534 1533 1533 1532 1531 1530 1530 1529
1542 1543 1543 1543 1543 1542 1542 1542 1543 1543 1543 1543 1543 1543 1543 1543 1543 1543 1543 1543 1543 1543 1543 1543 1542 1542 1542 1542 1541 1541 1540 1540 1540 1539 1539 1538 1539 1539 1539 1539 1539 1539 1539 1540 1540 1540 1540 1541 1541 1541 1541 1541 1541 1541 1541 1541 1541 1541 1541 1541 1541 1541 1541 1541 1541 1540 1540 1540 1539 1539 1539 1539 1539 1538 1538 1537 1536 1535 1534 1533 1532 1531 1531 1530 1530
1543 1543 1543 1543 1543 1543 1542 1543 1543 1543 1543 1543 1543 1543 1543 1543 1543 1543 1543 1543 1543 1543 1543 1543 1542 1542 1542 1542 1541 1541 1541 1540 1540 1540 1540 1539 1539 1539 1539 1539 1539 1539 1539 1540 1541 1541 1541 1541 1541 1541 1541 1541 1541 1540 1540 1540 1540 1541 1541 1541 1541 1542 1542 1541 1541 1541 1541 1540 1540 1540 1539 1539 1539 1539 1538 1537 1537 1536 1535 1534 1533 1532 1532 1531 1530
1543 1543 1543 1543 1543 1543 1543 1543 1543 1543 1543 1543 1543 1543 1543 1543 1543 1543 1543 1543 1543 1543 1543 1543 1543 1543 1542 1542 1542 1541 1541 1541 1540 1540 1540 1540 1540 1539 1539 1539 1539 1540 1540 1541 1541 1541 1542 1542 1542 1542 1542 1541 1541 1541 1541 1541 1541 1541 1541 1542 1542 1542 1542 1542 1542 1541 1541 1541 1540 1540 1540 1540 1540 1539 1539 1538 1537 1536 1535 1534 1533 1533 1532 1532 1531
1543 1543 1543 1543 1543 1543 1543 1543 1543 1543 1543 1543 1543 1543 1543 1543 1543 1543 1543 1543 1543 1543 1543 1543 1543 1543 1543 1542 1542 1541 1541 1541 1541 1541 1541 1540 1540 1540 1539 1539 1540 1540 1541 1541 1541 1542 1542 1542 1542 1542 1541 1541 1541 1541 1541 1541 1542 1542 1542 1542 1543 1543 1543 1543 1542 1541 1541 1541 1540 1540 1540 1540 1540 1540 1539 1538 1537 1536 1536 1535 1534 1533 1533 1532 1531
1544 1544 1544 1544 1544 1544 1544 1544 1544 1544 1544 1544 1544 1544 1544 1543 1543 1543 1543 1543 1543 1543 1543 1543 1543 1543 1543 1543 1542 1541 1541 1541 1541 1541 1541 1540 1540 1540 1540 1540 1540 1540 1541 1541 1542 1542 1542 1542 1542 1541 1541 1541 1541 1541 1542 1542 1542 1543 1543 1543 1544 1544 1544 1543 1542 1541 1541 1540 1540 1540 1540 1540 1540 1540 1539 1538 1537 1536 1536 1535 1534 1534 1533 1532 1532
1544 1544 1544 1544 1544 1544 1544 1544 1544 1544 1544 1544 1544 1544 1544 1543 1543 1543 1544 1544 1544 1543 1543 1543 1543 1543 1543 1543 1542 1541 1541 1541 1541 1541 1541 1540 1540 1540 1540 1540 1540 1541 1541 1542 1542 1542 1541 1541 1541 1541 1541 1541 1541 1541 1542 1542 1543 1543 1543 1544 1544 1544 1544 1543 1542 1541 1540 1540 1540 1540 1540 1540 1540 1540 1539 1538 1537 1536 1536 1535 1534 1534 1533 1533 1532
1545 1545 1544 1544 1544 1545 1545 1545 1545 1545 1545 1545 1544 1544 1544 1544 1544 1544 1544 1544 1544 1544 1544 1543 1543 1543 1543 1542 1542 1541 1541 1541 1541 1540 1540 1540 1540 1540 1541 1541 1541 1541 1541 1541 1541 1541 1541 1541 1541 1541 1541 1541 1541 1541 1542 1542 1543 1543 1543 1544 1544 1544 1544 1543 1542 1541 1540 1540 1540 1540 1540 1540 1540 1540 1539 1538 1537 1536 1535 1535 1534 1534 1533 1533 1532
1545 1545 1545 1545 1545 1545 1545 1545 1545 1546 1545 1545 1545 1544 1544 1544 1544 1544 1544 1544 1544 1544 1544 1544 1544 1544 1543 1543 1542 1542 1542 1542 1541 1541 1540 1540 1540 1540 1541 1541 1541 1541 1541 1541 1541 1541 1541 1540 1541 1541 1541 1541 1541 1541 1541 1542 1543 1543 1543 1544 1544 1544 1544 1543 1542 1542 1541 1540 1540 1540 1540 1540 1540 1539 1539 1537 1536 1536 1535 1535 1534 1534 1533 1533 1532
1546 1546 1545 1545 1545 1545 1545 1545 1546 1546 1546 1545 1545 1545 1545 1544 1545 1545 1545 1545 1545 1545 1545 1545 1544 1544 1544 1543 1543 1542 1542 1542 1542 1542 1541 1541 1540 1540 1541 1541 1541 1541 1541 1540 1540 1540 1540 1540 1540 1541 1541 1541 1541 1541 1542 1542 1542 1543 1543 1544 1544 1544 1544 1543 1542 1542 1541 1540 1540 1540 1540 1540 1540 1539 1538 1537 1536 1535 1535 1534 1534 1534 1533 1533 1533
1546 1546 1546 1546 1546 1545 1545 1546 1546 1546 1546 1546 1545 1545 1545 1545 1545 1546 1546 1546 1545 1546 1545 1545 1545 1545 1544 1544 1543 1543 1543 1543 1543 1542 1542 1542 1541 1541 1541 1541 1541 1541 1541 1540 1540 1540 1540 1540 1541 1541 1541 1541 1541 1542 1542 1542 1542 1543 1543 1544 1543 1543 1544 1543 1542 1541 1541 1540 1540 1540 1540 1540 1539 1538 1537 1536 1536 1535 1535 1534 1533 1533 1533 1533 1533
1547 1546 1546 1546 1545 1546 1546 1546 1547 1547 1546 1546 1546 1546 1546 1547 1547 1547 1547 1546 1546 1546 1546 1546 1546 1546 1545 1545 1544 1544 1544 1544 1544 1543 1543 1542 1542 1541 1541 1541 1541 1541 1541 1540 1540 1541 1541 1541 1541 1541 1541 1541 1541 1542 1542 1542 1543 1543 1543 1543 1543 1543 1544 1543 1542 1542 1541 1540 1540 1540 1540 1540 1539 1538 1537 1536 1535 1535 1534 1534 1533 1533 1533 1533 1533
1547 1546 1546 1546 1546 1546 1547 1547 1547 1547 1547 1547 1547 1547 1548 1548 1548 1548 1547 1547 1547 1547 1547 1546 1546 1546 1545 1545 1545 1544 1545 1545 1545 1544 1543 1543 1542 1542 1541 1541 1541 1541 1541 1541 1541 1541 1541 1541 1541 1541 1541 1541 1541 1542 1542 1542 1543 1543 1543 1544 1544 1544 1544 1543 1542 1542 1541 1540 1540 1540 1540 1540 1539 1538 1536 1535 1534 1534 1534 1534 1533 1533 1533 1533 1533
1546 1546 1546 1546 1546 1547 1547 1547 1548 1548 1548 1548 1548 1548 1548 1549 1548 1548 1548 1548 1547 1547 1547 1547 1546 1546 1545 1545 1545 1545 1545 1545 1545 1545 1544 1543 1543 1542 1542 1541 1541 1540 1540 1541 1541 1541 1541 1541 1541 1541 1541 1541 1541 1542 1542 1542 1543 1543 1543 1544 1544 1544 1543 1542 1541 1540 1540 1540 1540 1539 1539 1539 1538 1537 1536 1535 1534 1534 1533 1534 1533 1533 1533 1533 1533
1547 1547 1547 1547 1547 1548 1548 1548 1548 1548 1549 1549 1549 1549 1549 1549 1549 1549 1548 1548 1548 1548 1547 1547 1547 1546 1546 1546 1546 1546 1546 1546 1545 1545 1544 1543 1543 1542 1542 1541 1541 1540 1540 1540 1541 1541 1541 1541 1541 1541 1541 1541 1541 1542 1542 1542 1542 1543 1543 1544 1544 1543 1541 1540 1540 1539 1539 1538 1538 1538 1538 1538 1538 1537 1536 1535 1535 1534 1534 1534 1534 1534 1533 1533 1533
1548 1548 1548 1548 1548 1549 1549 1549 1549 1549 1550 1550 1550 1551 1551 1550 1550 1550 1549 1549 1549 1549 1548 1548 1548 1547 1547 1547 1547 1547 1546 1546 1545 1545 1544 1543 1543 1543 1542 1542 1541 1541 1541 1541 1541 1541 1541 1540 1540 1540 1540 1540 1541 1541 1541 1542 1542 1543 1543 1543 1542 1540 1539 1539 1539 1538 1538 1537 1537 1537 1538 1538 1538 1537 1537 1536 1535 1535 1535 1534 1534 1533 1533 1533 1533
1549 1549 1548 1549 1549 1550 1550 1550 1550 1550 1551 1551 1552 1552 1551 1551 1551 1551 1550 1550 1550 1549 1549 1549 1549 1548 1548 1548 1547 1547 1547 1546 1546 1545 1545 1544 1543 1543 1543 1542 1542 1542 1541 1541 1541 1541 1541 1540 1540 1540 1540 1540 1540 1541 1541 1542 1542 1543 1543 1542 1540 1538 1538 1538 1538 1538 1538 1538 1538 1537 1537 1538 1538 1538 1537 1536 1536 1535 1535 1535 1534 1534 1533 1533 1532
1550 1549 1549 1549 1550 1550 1551 1551 1551 1551 1552 1552 1553 1553 1552 1552 1551 1551 1551 1551 1550 1550 1550 1550 1549 1549 1549 1548 1548 1547 1547 1547 1546 1546 1545 1545 1544 1543 1543 1543 1543 1542 1542 1542 1542 1541 1541 1540 1540 1540 1540 1540 1540 1540 1541 1542 1542 1542 1542 1540 1538 1538 1538 1539 1538 1538 1538 1538 1538 1537 1537 1537 1538 1537 1537 1537 1536 1536 1536 1535 1534 1534 1533 1533 1533
1550 1550 1550 1550 1551 1551 1551 1552 1552 1552 1552 1553 1553 1553 1553 1552 1552 1552 1552 1551 1551 1551 1551 1550 1550 1550 1549 1549 1549 1548 1548 1547 1547 1546 1546 1545 1544 1544 1543 1543 1543 1543 1543 1542 1542 1541 1541 1540 1540 1540 1540 1541 1540 1541 1541 1541 1542 1542 1541 1539 1538 1538 1538 1538 1538 1537 1537 1536 1537 1537 1537 1537 1537 1537 1537 1537 1537 1537 1536 1534 1534 1533 1533 1533 1533
1550 1550 1551 1551 1552 1552 1552 1552 1553 1553 1553 1554 1554 1554 1553 1553 1553 1553 1553 1553 1552 1552 1551 1551 1551 1550 1550 1550 1549 1549 1548 1548 1548 1547 1546 1545 1544 1544 1544 1543 1543 1543 1542 1542 1542 1542 1541 1541 1541 1541 1541 1541 1541 1541 1541 1541 1541 1540 1539 1538 1538 1538 1538 1538 1537 1537 1536 1536 1536 1536 1536 1536 1536 1536 1536 1537 1537 1536 1535 1534 1533 1533 1533 1533 1533
1551 1552 1552 1552 1553 1553 1553 1553 1554 1554 1554 1555 1554 1554 1554 1554 1554 1554 1554 1554 1553 1553 1553 1552 1552 1552 1551 1550 1550 1549 1549 1549 1548 1547 1547 1546 1545 1544 1544 1544 1543 1543 1542 1542 1542 1542 1542 1541 1541 1541 1541 1540 1540 1540 1541 1541 1541 1540 1539 1539 1538 1538 1538 1537 1537 1536 1535 1535 1535 1535 1535 1534 1536 1536 1536 1537 1536 1536 1535 1534 1533 1534 1533 1533 1533
1553 1553 1554 1553 1554 1554 1554 1554 1555 1555 1555 1555 1555 1555 1555 1555 1555 1555 1555 1555 1554 1554 1554 1553 1553 1553 1552 1552 1551 1550 1550 1549 1549 1548 1547 1546 1545 1545 1544 1544 1544 1544 1543 1543 1543 1542 1542 1541 1541 1541 1541 1540 1540 1540 1540 1540 1540 1540 1539 1539 1537 1537 1537 1537 1536 1535 1535 1535 1535 1535 1534 1534 1536 1536 1537 1537 1536 1535 1534 1534 1534 1533 1533 1533 1533
1554 1554 1555 1554 1555 1555 1555 1556 1556 1556 1556 1556 1556 1556 1557 1557 1557 1557 1557 1556 1556 1556 1555 1555 1554 1554 1553 1552 1552 1551 1550 1550 1550 1548 1547 1547 1546 1545 1545 1545 1544 1544 1544 1543 1543 1542 1542 1541 1541 1541 1541 1540 1540 1540 1540 1540 1539 1539 1539 1538 1537 1536 1536 1535 1535 1535 1535 1535 1534 1534 1533 1532 1534 1536 1536 1536 1536 1535 1534 1534 1534 1533 1533 1532 1532
1555 1555 1555 1555 1556 1556 1557 1557 1557 1557 1557 1557 1557 1558 1558 1558 1558 1558 1558 1558 1558 1557 1557 1556 1555 1554 1554 1553 1552 1551 1551 1551 1550 1549 1548 1547 1547 1546 1546 1546 1545 1545 1544 1544 1543 1543 1542 1541 1541 1541 1541 1540 1539 1539 1540 1539 1539 1538 1539 1538 1537 1536 1535 1534 1534 1534 1534 1534 1534 1534 1533 1532 1533 1534 1536 1535 1535 1535 1535 1534 1534 1533 1532 1531 1531
1556 1556 1556 1556 1557 1557 1558 1558 1558 1558 1559 1559 1560 1560 1559 1559 1560 1559 1559 1559 1558 1558 1557 1556 1556 1555 1554 1553 1553 1552 1551 1551 1550 1549 1548 1548 1548 1547 1547 1546 1546 1545 1545 1544 1544 1543 1542 1541 1541 1541 1541 1540 1540 1539 1539 1539 1538 1538 1538 1538 1537 1536 1535 1534 1534 1534 1533 1534 1534 1534 1533 1532 1533 1533 1534 1534 1534 1534 1534 1534 1533 1532 1531 1531 1530
1557 1557 1557 1558 1558 1559 1559 1560 1560 1560 1560 1561 1561 1561 1561 1561 1561 1561 1560 1560 1559 1559 1558 1557 1557 1556 1555 1554 1554 1553 1552 1552 1551 1550 1549 1549 1549 1548 1547 1547 1546 1546 1545 1545 1544 1543 1542 1541 1541 1541 1541 1540 1540 1539 1539 1539 1538 1538 1538 1537 1537 1536 1535 1534 1533 1533 1533 1533 1534 1534 1533 1533 1533 1533 1534 1534 1534 1534 1533 1533 1532 1531 1530 1530 1529
1558 1558 1559 1559 1560 1560 1561 1561 1562 1562 1562 1562 1562 1563 1563 1563 1563 1562 1562 1561 1560 1560 1560 1559 1558 1558 1557 1556 1555 1555 1554 1553 1552 1551 1551 1550 1550 1549 1548 1548 1547 1546 1546 1545 1544 1543 1543 1542 1542 1541 1541 1541 1540 1539 1538 1538 1538 1538 1538 1538 1537 1536 1535 1534 1533 1533 1533 1533 1533 1534 1534 1534 1533 1533 1534 1534 1533 1533 1533 1532 1531 1530 1530 1529 1529
1559 1559 1560 1560 1561 1562 1562 1563 1563 1563 1563 1564 1564 1564 1564 1564 1564 1564 1563 1563 1562 1561 1560 1560 1559 1559 1558 1557 1557 1556 1555 1554 1554 1553 1552 1551 1551 1550 1549 1548 1548 1547 1546 1545 1544 1543 1543 1543 1542 1541 1541 1541 1540 1539 1538 1538 1538 1538 1539 1538 1537 1536 1536 1535 1534 1533 1533 1533 1533 1534 1534 1534 1534 1534 1534 1534 1534 1533 1532 1532 1531 1530 1530 1529 1528
1561 1561 1561 1562 1563 1563 1564 1564 1564 1564 1565 1565 1565 1565 1565 1565 1565 1565 1564 1564 1563 1562 1561 1560 1560 1559 1559 1558 1558 1557 1556 1555 1555 1554 1553 1552 1551 1550 1550 1549 1548 1547 1546 1545 1544 1544 1543 1543 1542 1542 1541 1540 1540 1539 1539 1538 1538 1538 1539 1539 1537 1537 1537 1536 1535 1534 1534 1533 1533 1533 1534 1533 1533 1534 1534 1534 1534 1533 1533 1532 1531 1531 1530 1529 1528
1562 1562 1563 1563 1564 1564 1565 1565 1565 1566 1566 1565 1565 1566 1566 1566 1566 1566 1565 1565 1564 1563 1562 1561 1560 1560 1559 1559 1559 1558 1557 1556 1555 1554 1554 1553 1552 1551 1550 1549 1548 1547 1546 1546 1545 1545 1544 1543 1543 1542 1541 1540 1539 1539 1539 1539 1539 1539 1539 1539 1538 1538 1538 1537 1536 1535 1535 1534 1534 1534 1533 1533 1533 1534 1533 1534 1534 1534 1533 1532 1531 1531 1530 1530 1529
1563 1564 1564 1565 1565 1566 1566 1567 1567 1567 1567 1567 1567 1567 1567 1567 1567 1566 1566 1565 1565 1564 1563 1562 1562 1561 1560 1560 1559 1559 1558 1557 1556 1555 1554 1553 1552 1551 1551 1550 1549 1548 1547 1546 1546 1545 1544 1544 1543 1542 1542 1541 1539 1540 1540 1539 1540 1540 1540 1539 1538 1538 1538 1537 1537 1536 1536 1535 1535 1534 1534 1534 1534 1533 1533 1533 1534 1534 1533 1532 1532 1531 1531 1530 1530
1564 1565 1565 1566 1567 1567 1568 1568 1568 1568 1569 1569 1568 1568 1568 1568 1567 1567 1566 1566 1566 1565 1564 1564 1563 1562 1561 1561 1560 1559 1559 1558 1556 1555 1554 1553 1553 1552 1551 1550 1549 1548 1547 1547 1546 1545 1544 1544 1543 1542 1542 1541 1539 1539 1540 1540 1540 1540 1540 1539 1539 1538 1538 1538 1537 1537 1537 1536 1535 1535 1534 1534 1534 1533 1534 1534 1534 1534 1533 1532 1531 1531 1531 1530 1530
1565 1566 1566 1567 1568 1568 1569 1569 1569 1569 1569 1569 1569 1569 1568 1568 1568 1567 1567 1567 1566 1566 1565 1565 1564 1563 1562 1561 1561 1560 1559 1558 1557 1556 1555 1554 1553 1552 1552 1551 1550 1549 1548 1547 1546 1546 1545 1544 1543 1543 1543 1542 1540 1539 1540 1540 1540 1540 1540 1539 1539 1538 1538 1538 1538 1537 1537 1536 1536 1535 1535 1534 1534 1534 1534 1534 1535 1534 1533 1532 1532 1531 1531 1530 1530
1566 1566 1567 1568 1568 1569 1569 1569 1570 1570 1570 1570 1569 1569 1569 1568 1568 1568 1568 1567 1567 1567 1566 1566 1565 1564 1563 1562 1561 1560 1559 1558 1558 1557 1556 1555 1554 1553 1552 1551 1551 1549 1548 1547 1547 1546 1545 1544 1544 1544 1543 1542 1541 1540 1540 1540 1540 1540 1540 1539 1539 1539 1538 1538 1539 1538 1538 1537 1537 1536 1536 1535 1535 1535 1535 1535 1535 1535 1534 1533 1532 1531 1531 1531 1530
1566 1567 1568 1569 1569 1569 1570 1570 1570 1570 1570 1570 1570 1569 1569 1569 1569 1568 1568 1568 1568 1568 1567 1567 1566 1564 1563 1562 1561 1561 1560 1559 1559 1558 1557 1556 1555 1554 1553 1552 1552 1551 1549 1548 1547 1546 1546 1545 1545 1544 1544 1543 1542 1541 1540 1540 1540 1540 1540 1540 1539 1539 1539 1539 1539 1539 1538 1538 1537 1537 1537 1537 1536 1536 1535 1535 1535 1535 1534 1533 1533 1532 1531 1531 1531
1567 1568 1569 1569 1570 1570 1571 1571 1571 1571 1570 1570 1570 1570 1569 1569 1569 1569 1569 1569 1569 1568 1568 1567 1566 1565 1564 1563 1562 1562 1561 1560 1559 1558 1558 1556 1555 1555 1554 1554 1553 1552 1551 1549 1548 1547 1547 1546 1546 1545 1544 1544 1543 1542 1541 1541 1541 1540 1540 1540 1540 1540 1540 1540 1539 1539 1539 1538 1537 1537 1537 1537 1537 1536 1536 1536 1535 1535 1534 1534 1533 1533 1532 1532 1531
1568 1569 1570 1570 1571 1571 1571 1571 1571 1571 1571 1571 1570 1570 1570 1569 1569 1569 1569 1569 1569 1568 1568 1567 1566 1565 1564 1564 1563 1562 1561 1560 1559 1558 1558 1557 1556 1555 1555 1554 1554 1553 1552 1551 1549 1548 1548 1547 1547 1546 1545 1544 1544 1543 1543 1542 1541 1541 1541 1541 1541 1540 1540 1541 1540 1540 1539 1538 1538 1537 1537 1537 1537 1536 1536 1536 1536 1535 1535 1534 1534 1534 1533 1533 1532
1569 1570 1570 1571 1571 1572 1572 1572 1572 1572 1571 1571 1571 1571 1570 1570 1570 1570 1569 1569 1569 1569 1568 1568 1566 1565 1564 1564 1563 1562 1561 1560 1559 1558 1558 1557 1556 1555 1555 1555 1554 1554 1553 1552 1551 1549 1549 1548 1547 1546 1545 1544 1544 1544 1543 1542 1541 1541 1541 1541 1541 1541 1541 1541 1541 1540 1540 1539 1539 1539 1539 1538 1537 1537 1537 1536 1536 1536 1536 1535 1535 1534 1533 1533 1532
1570 1571 1571 1572 1572 1572 1572 1572 1572 1572 1572 1572 1571 1571 1571 1571 1570 1570 1570 1570 1569 1569 1568 1568 1566 1565 1564 1564 1563 1562 1561 1560 1559 1558 1557 1556 1556 1555 1555 1554 1554 1553 1553 1552 1551 1550 1549 1548 1548 1547 1546 1545 1544 1544 1543 1542 1542 1541 1541 1541 1541 1541 1540 1540 1541 1541 1541 1540 1540 1540 1540 1539 1538 1538 1537 1537 1537 1536 1536 1535 1535 1534 1533 1533 1532
1571 1572 1572 1572 1572 1573 1573 1573 1573 1573 1572 1572 1572 1572 1571 1571 1571 1570 1570 1570 1569 1568 1568 1567 1566 1565 1564 1563 1563 1561 1560 1560 1559 1558 1557 1556 1555 1555 1554 1554 1553 1553 1552 1552 1551 1550 1549 1549 1548 1547 1547 1546 1545 1544 1543 1542 1542 1542 1541 1540 1540 1540 1539 1540 1541 1541 1541 1541 1541 1541 1541 1540 1539 1539 1538 1538 1537 1537 1536 1535 1535 1534 1533 1532 1531
1572 1572 1572 1573 1573 1573 1573 1573 1573 1573 1572 1572 1572 1572 1571 1571 1570 1570 1570 1569 1568 1568 1567 1566 1565 1565 1564 1563 1562 1561 1560 1560 1559 1558 1557 1556 1555 1554 1553 1553 1553 1552 1552 1551 1551 1550 1550 1549 1548 1547 1546 1546 1545 1544 1543 1542 1542 1542 1541 1540 1539 1539 1539 1539 1540 1540 1541 1541 1541 1541 1541 1541 1540 1539 1539 1539 1538 1537 1537 1536 1535 1534 1533 1532 1532
1572 1572 1573 1573 1573 1573 1573 1573 1573 1572 1572 1572 1571 1571 1570 1570 1569 1569 1569 1568 1567 1567 1566 1565 1565 1564 1563 1563 1562 1561 1560 1559 1559 1558 1557 1556 1555 1554 1553 1552 1552 1551 1551 1550 1550 1549 1549 1548 1547 1547 1546 1545 1544 1544 1543 1542 1542 1542 1541 1540 1539 1539 1539 1539 1540 1540 1540 1540 1541 1542 1542 1542 1541 1540 1540 1540 1539 1538 1537 1537 1536 1535 1534 1533 1532
1572 1573 1573 1573 1573 1573 1573 1572 1572 1572 1571 1571 1570 1570 1569 1569 1568 1568 1567 1567 1566 1565 1565 1564 1563 1563 1562 1562 1561 1560 1560 1559 1558 1558 1557 1556 1555 1553 1552 1551 1551 1550 1549 1549 1549 1548 1548 1547 1546 1546 1545 1545 1544 1543 1543 1542 1542 1541 1541 1540 1540 1539 1539 1539 1539 1539 1539 1539 1540 1541 1541 1542 1541 1540 1540 1540 1539 1539 1538 1537 1536 1535 1535 1534 1533
1572 1573 1573 1573 1572 1572 1572 1572 1571 1571 1570 1570 1569 1568 1568 1567 1567 1566 1566 1565 1564 1563 1563 1562 1562 1561 1561 1560 1560 1559 1559 1558 1558 1557 1556 1556 1555 1553 1552 1551 1550 1549 1548 1547 1547 1546 1546 1546 1545 1544 1544 1544 1543 1543 1542 1542 1541 1541 1541 1541 1540 1540 1539 1539 1539 1539 1539 1539 1539 1540 1541 1541 1541 1541 1541 1541 1540 1539 1539 1538 1537 1536 1536 1534 1533
1572 1573 1572 1572 1572 1572 1572 1571 1571 1570 1569 1569 1568 1567 1567 1566 1566 1565 1564 1564 1563 1562 1560 1559 1559 1559 1558 1558 1558 1558 1558 1557 1557 1556 1555 1555 1554 1553 1552 1551 1550 1548 1547 1546 1545 1545 1544 1544 1543 1543 1543 1543 1542 1542 1542 1542 1541 1541 1541 1540 1540 1540 1539 1539 1538 1538 1538 1538 1538 1540 1541 1541 1541 1541 1541 1541 1540 1540 1539 1539 1538 1537 1536 1535 1534